RYR869V LZIB-LGKR

Flight info

Callsign RYR869V
Flight time 1h 34m
Altitude 38000
Route VAMOG DCT SIRDU DCT KOPRY/N0439F370 DCT LURID DCT RODON DCT LIMJA N732 PITAS
Aircraft B738/M-SDE3FGILRWY/SB1

Departure

Time 2026-05-07 17:49
Airport M. R. Štefánik Airport (LZIB)

Arrival

Time 2026-05-07 19:24
Airport Corfu Ioannis Kapodistrias International Airport (LGKR)
Time Latitude Longitude Altitude Speed Heading
2026-05-07 17:23 48.16950 17.20144 440 ft 0 kts 314°
2026-05-07 17:33 48.16949 17.20144 440 ft 0 kts 314°
2026-05-07 17:39 48.16948 17.20147 440 ft 2 kts 314°
2026-05-07 17:39 48.16936 17.20166 424 ft 3 kts 314°
2026-05-07 17:39 48.16922 17.20186 426 ft 3 kts 328°
2026-05-07 17:39 48.16908 17.20195 427 ft 3 kts 24°
2026-05-07 17:40 48.16903 17.20192 429 ft 0 kts 44°
2026-05-07 17:44 48.16915 17.20209 425 ft 5 kts 44°
2026-05-07 17:44 48.16947 17.20256 433 ft 8 kts 44°
2026-05-07 17:44 48.16993 17.20322 438 ft 10 kts 44°
2026-05-07 17:45 48.17054 17.20411 425 ft 15 kts 44°
2026-05-07 17:45 48.17131 17.20525 428 ft 16 kts 44°
2026-05-07 17:45 48.17178 17.20574 429 ft 6 kts 14°
2026-05-07 17:45 48.17220 17.20559 422 ft 6 kts 329°
2026-05-07 17:46 48.17252 17.20515 432 ft 6 kts 315°
2026-05-07 17:46 48.17287 17.20462 429 ft 8 kts 315°
2026-05-07 17:46 48.17334 17.20392 423 ft 11 kts 315°
2026-05-07 17:46 48.17396 17.20314 427 ft 11 kts 337°
2026-05-07 17:47 48.17455 17.20300 425 ft 2 kts
2026-05-07 17:47 48.17473 17.20307 425 ft 3 kts 17°
2026-05-07 17:47 48.17498 17.20327 425 ft 5 kts 36°
2026-05-07 17:47 48.17532 17.20380 423 ft 10 kts 48°
2026-05-07 17:48 48.17545 17.20402 420 ft 2 kts 52°
2026-05-07 17:48 48.17546 17.20423 423 ft 2 kts 99°
2026-05-07 17:48 48.17532 17.20454 420 ft 6 kts 131°
2026-05-07 17:48 48.17463 17.20564 428 ft 36 kts 134°
2026-05-07 17:49 48.17118 17.21100 418 ft 105 kts 134°
2026-05-07 17:49 48.16473 17.22101 428 ft 160 kts 134°
2026-05-07 17:49 48.15592 17.23437 622 ft 191 kts 133°
2026-05-07 17:49 48.14750 17.24858 1498 ft 178 kts 134°
2026-05-07 17:50 48.13922 17.26189 2311 ft 176 kts 133°
2026-05-07 17:50 48.13021 17.27600 2688 ft 203 kts 136°
2026-05-07 17:50 48.11971 17.29186 2925 ft 226 kts 136°
2026-05-07 17:50 48.10831 17.30903 3286 ft 245 kts 136°
2026-05-07 17:51 48.09582 17.32801 3753 ft 261 kts 136°
2026-05-07 17:51 48.08302 17.34761 4539 ft 266 kts 136°
2026-05-07 17:51 48.07009 17.36746 5374 ft 268 kts 135°
2026-05-07 17:51 48.05704 17.38753 6165 ft 271 kts 135°
2026-05-07 17:52 48.04382 17.40787 6918 ft 274 kts 135°
2026-05-07 17:52 48.03046 17.42842 7684 ft 277 kts 134°
2026-05-07 17:52 48.01696 17.44917 8457 ft 280 kts 134°
2026-05-07 17:52 48.00327 17.47021 9231 ft 284 kts 134°
2026-05-07 17:53 47.98946 17.49143 9973 ft 287 kts 134°
2026-05-07 17:53 47.97527 17.51321 10414 ft 302 kts 135°
2026-05-07 17:53 47.96003 17.53658 10587 ft 325 kts 135°
2026-05-07 17:53 47.94379 17.56146 10897 ft 341 kts 135°
2026-05-07 17:54 47.92704 17.58709 11481 ft 348 kts 136°
2026-05-07 17:54 47.90986 17.61301 12195 ft 351 kts 140°
2026-05-07 17:54 47.88923 17.63186 12862 ft 350 kts 163°
2026-05-07 17:54 47.86563 17.64055 13648 ft 350 kts 172°
2026-05-07 17:55 47.84161 17.64721 14338 ft 353 kts 172°
2026-05-07 17:55 47.81742 17.65405 15115 ft 354 kts 172°
2026-05-07 17:55 47.79310 17.65898 15883 ft 351 kts 184°
2026-05-07 17:55 47.76925 17.65273 16656 ft 347 kts 201°
2026-05-07 17:56 47.74689 17.63949 17434 ft 348 kts 204°
2026-05-07 17:56 47.72452 17.62521 18171 ft 350 kts 205°
2026-05-07 17:56 47.70211 17.61073 18789 ft 353 kts 205°
2026-05-07 17:56 47.67948 17.59617 19405 ft 356 kts 205°
2026-05-07 17:57 47.65668 17.58162 19996 ft 358 kts 205°
2026-05-07 17:57 47.64117 17.57179 20397 ft 360 kts 205°
2026-05-07 17:57 47.61043 17.55244 21181 ft 364 kts 205°
2026-05-07 17:57 47.58702 17.53779 21765 ft 367 kts 204°
2026-05-07 17:58 47.56344 17.52306 22364 ft 369 kts 204°
2026-05-07 17:58 47.53968 17.50825 22935 ft 372 kts 205°
2026-05-07 17:58 47.51578 17.49337 23469 ft 375 kts 205°
2026-05-07 17:58 47.49159 17.47833 23941 ft 377 kts 204°
2026-05-07 17:59 47.46736 17.46329 24429 ft 379 kts 204°
2026-05-07 17:59 47.44298 17.44817 24915 ft 380 kts 204°
2026-05-07 17:59 47.41860 17.43305 25378 ft 382 kts 204°
2026-05-07 17:59 47.39400 17.41782 25828 ft 384 kts 204°
2026-05-07 18:00 47.36935 17.40257 26254 ft 385 kts 204°
2026-05-07 18:00 47.34453 17.38726 26682 ft 387 kts 204°
2026-05-07 18:00 47.31963 17.37186 27106 ft 389 kts 205°
2026-05-07 18:00 47.29456 17.35638 27477 ft 392 kts 205°
2026-05-07 18:01 47.26933 17.34083 27845 ft 395 kts 204°
2026-05-07 18:01 47.24352 17.32674 28240 ft 398 kts 198°
2026-05-07 18:01 47.21665 17.31641 28630 ft 400 kts 197°
2026-05-07 18:01 47.18951 17.30665 29009 ft 402 kts 196°
2026-05-07 18:02 47.13483 17.28716 29712 ft 406 kts 196°
2026-05-07 18:02 47.10721 17.27720 30013 ft 409 kts 197°
2026-05-07 18:02 47.07952 17.26712 30261 ft 412 kts 197°
2026-05-07 18:03 47.05176 17.25698 30661 ft 410 kts 197°
2026-05-07 18:03 47.02420 17.24688 31133 ft 407 kts 197°
2026-05-07 18:03 46.99677 17.23683 31539 ft 406 kts 198°
2026-05-07 18:03 46.96940 17.22679 31888 ft 406 kts 198°
2026-05-07 18:04 46.94206 17.21676 32227 ft 405 kts 198°
2026-05-07 18:04 46.91472 17.20675 32593 ft 404 kts 198°
2026-05-07 18:04 46.88741 17.19677 32855 ft 406 kts 199°
2026-05-07 18:04 46.85990 17.18669 33119 ft 408 kts 199°
2026-05-07 18:05 46.83243 17.17667 33519 ft 406 kts 199°
2026-05-07 18:05 46.80515 17.16674 33948 ft 403 kts 199°
2026-05-07 18:05 46.77792 17.15683 34231 ft 403 kts 199°
2026-05-07 18:05 46.75068 17.14692 34448 ft 405 kts 199°
2026-05-07 18:06 46.72363 17.13706 34674 ft 406 kts 199°
2026-05-07 18:06 46.69591 17.12700 34912 ft 406 kts 199°
2026-05-07 18:06 46.66878 17.11717 35118 ft 407 kts 199°
2026-05-07 18:06 46.64096 17.10710 35368 ft 407 kts 199°
2026-05-07 18:07 46.61383 17.09728 35628 ft 407 kts 199°
2026-05-07 18:07 46.58601 17.08723 35859 ft 407 kts 199°
2026-05-07 18:07 46.55879 17.07741 36044 ft 409 kts 199°
2026-05-07 18:07 46.53121 17.06749 36291 ft 408 kts 199°
2026-05-07 18:08 46.50371 17.05757 36520 ft 408 kts 199°
2026-05-07 18:08 46.47606 17.04760 36677 ft 410 kts 199°
2026-05-07 18:08 46.44839 17.03763 36872 ft 410 kts 199°
2026-05-07 18:08 46.42065 17.02766 37136 ft 410 kts 199°
2026-05-07 18:09 46.39302 17.01775 37347 ft 410 kts 199°
2026-05-07 18:09 46.36533 17.00782 37527 ft 411 kts 199°
2026-05-07 18:09 46.33717 16.99773 37763 ft 411 kts 199°
2026-05-07 18:09 46.30946 16.98781 37956 ft 411 kts 198°
2026-05-07 18:10 46.28160 16.97794 37977 ft 414 kts 197°
2026-05-07 18:10 46.22315 16.97348 37997 ft 429 kts 180°
2026-05-07 18:11 46.16426 16.99181 38003 ft 436 kts 170°
2026-05-07 18:11 46.10628 17.01585 37998 ft 436 kts 170°
2026-05-07 18:12 46.04794 17.03986 37986 ft 435 kts 170°
2026-05-07 18:12 45.98977 17.06331 37995 ft 434 kts 171°
2026-05-07 18:13 45.93156 17.08653 38000 ft 433 kts 171°
2026-05-07 18:13 45.87345 17.10962 37988 ft 433 kts 171°
2026-05-07 18:14 45.81542 17.13263 38001 ft 432 kts 171°
2026-05-07 18:14 45.75750 17.15556 37998 ft 432 kts 171°
2026-05-07 18:15 45.69974 17.17839 38005 ft 431 kts 171°
2026-05-07 18:15 45.64188 17.20119 38003 ft 431 kts 171°
2026-05-07 18:16 45.58401 17.22396 38016 ft 431 kts 171°
2026-05-07 18:16 45.52625 17.24663 38006 ft 431 kts 171°
2026-05-07 18:17 45.46877 17.26914 38011 ft 431 kts 171°
2026-05-07 18:17 45.41094 17.29176 38016 ft 431 kts 171°
2026-05-07 18:18 45.35311 17.31432 38005 ft 432 kts 171°
2026-05-07 18:18 45.29508 17.33690 38017 ft 433 kts 171°
2026-05-07 18:19 45.23687 17.35952 38015 ft 434 kts 171°
2026-05-07 18:19 45.17858 17.38212 38021 ft 434 kts 171°
2026-05-07 18:20 45.12029 17.40542 38021 ft 437 kts 168°
2026-05-07 18:20 45.06265 17.43331 38022 ft 439 kts 167°
2026-05-07 18:21 45.00507 17.46233 37983 ft 440 kts 166°
2026-05-07 18:21 44.94737 17.49110 38008 ft 439 kts 167°
2026-05-07 18:22 44.88967 17.51949 38027 ft 439 kts 167°
2026-05-07 18:22 44.83193 17.54770 38018 ft 440 kts 167°
2026-05-07 18:23 44.78387 17.57112 38010 ft 440 kts 167°
2026-05-07 18:23 44.72607 17.59924 38017 ft 440 kts 167°
2026-05-07 18:24 44.66824 17.62731 38045 ft 440 kts 167°
2026-05-07 18:24 44.61027 17.65541 38036 ft 440 kts 167°
2026-05-07 18:25 44.55240 17.68339 38018 ft 440 kts 167°
2026-05-07 18:25 44.49441 17.71137 38032 ft 441 kts 167°
2026-05-07 18:26 44.43643 17.73931 38034 ft 441 kts 167°
2026-05-07 18:26 44.37838 17.76720 38035 ft 441 kts 167°
2026-05-07 18:27 44.32038 17.79500 38044 ft 441 kts 168°
2026-05-07 18:27 44.26234 17.82274 38060 ft 441 kts 168°
2026-05-07 18:28 44.20415 17.85053 38049 ft 442 kts 168°
2026-05-07 18:28 44.14592 17.87831 38042 ft 442 kts 168°
2026-05-07 18:29 44.08756 17.90606 38058 ft 444 kts 168°
2026-05-07 18:29 44.02913 17.93377 38073 ft 445 kts 168°
2026-05-07 18:30 43.97021 17.96166 38057 ft 447 kts 168°
2026-05-07 18:30 43.91127 17.98952 38071 ft 448 kts 168°
2026-05-07 18:31 43.85233 18.01731 38083 ft 446 kts 168°
2026-05-07 18:31 43.79397 18.04476 38075 ft 445 kts 168°
2026-05-07 18:32 43.73482 18.07261 38050 ft 447 kts 169°
2026-05-07 18:32 43.67614 18.10004 38067 ft 450 kts 169°
2026-05-07 18:33 43.61630 18.12801 38072 ft 452 kts 169°
2026-05-07 18:33 43.55672 18.15583 38100 ft 453 kts 169°
2026-05-07 18:34 43.49685 18.18371 38098 ft 454 kts 169°
2026-05-07 18:34 43.43721 18.21143 38096 ft 456 kts 169°
2026-05-07 18:35 43.37668 18.23950 38083 ft 456 kts 169°
2026-05-07 18:35 43.31674 18.26726 38087 ft 455 kts 169°
2026-05-07 18:36 43.25698 18.29487 38090 ft 455 kts 169°
2026-05-07 18:36 43.19702 18.32251 38105 ft 454 kts 169°
2026-05-07 18:37 43.13720 18.35002 38097 ft 453 kts 169°
2026-05-07 18:37 43.07695 18.37768 38103 ft 452 kts 170°
2026-05-07 18:38 43.01777 18.40477 38092 ft 452 kts 170°
2026-05-07 18:38 42.95802 18.43208 38098 ft 453 kts 170°
2026-05-07 18:39 42.89832 18.45929 38075 ft 454 kts 171°
2026-05-07 18:39 42.83826 18.48662 38098 ft 455 kts 171°
2026-05-07 18:40 42.77818 18.51390 38091 ft 456 kts 171°
2026-05-07 18:40 42.71784 18.54126 38085 ft 457 kts 171°
2026-05-07 18:41 42.65747 18.56860 38047 ft 457 kts 172°
2026-05-07 18:41 42.59730 18.59567 38085 ft 456 kts 172°
2026-05-07 18:42 42.53700 18.62287 38077 ft 456 kts 172°
2026-05-07 18:42 42.47660 18.65008 38041 ft 457 kts 173°
2026-05-07 18:43 42.41619 18.67716 38077 ft 458 kts 173°
2026-05-07 18:43 42.35562 18.70428 38087 ft 460 kts 173°
2026-05-07 18:44 42.29464 18.73152 38070 ft 462 kts 173°
2026-05-07 18:44 42.23377 18.75871 38066 ft 460 kts 174°
2026-05-07 18:45 42.17286 18.78584 38050 ft 460 kts 175°
2026-05-07 18:45 42.11209 18.81283 38069 ft 460 kts 175°
2026-05-07 18:46 42.05146 18.83970 38035 ft 459 kts 176°
2026-05-07 18:46 41.99082 18.86652 38062 ft 459 kts 176°
2026-05-07 18:47 41.93006 18.89334 38078 ft 459 kts 176°
2026-05-07 18:47 41.86940 18.92007 38072 ft 459 kts 176°
2026-05-07 18:48 41.80866 18.94677 38060 ft 460 kts 175°
2026-05-07 18:48 41.74794 18.97343 38068 ft 460 kts 176°
2026-05-07 18:49 41.68694 19.00015 38070 ft 461 kts 176°
2026-05-07 18:49 41.62570 19.02690 37684 ft 467 kts 175°
2026-05-07 18:49 41.59468 19.04038 37175 ft 466 kts 175°
2026-05-07 18:50 41.56407 19.05383 36734 ft 463 kts 175°
2026-05-07 18:50 41.53358 19.06718 36369 ft 457 kts 175°
2026-05-07 18:50 41.50335 19.08036 36004 ft 453 kts 175°
2026-05-07 18:50 41.47373 19.09324 35626 ft 449 kts 174°
2026-05-07 18:51 41.44411 19.10621 35282 ft 445 kts 173°
2026-05-07 18:51 41.41510 19.11996 35040 ft 440 kts 172°
2026-05-07 18:51 41.38656 19.13409 34730 ft 436 kts 172°
2026-05-07 18:51 41.36858 19.14310 34550 ft 433 kts 172°
2026-05-07 18:52 41.36333 19.14573 34479 ft 433 kts 172°
2026-05-07 18:52 41.33532 19.15970 34129 ft 430 kts 172°
2026-05-07 18:52 41.30736 19.17355 33716 ft 427 kts 171°
2026-05-07 18:52 41.27959 19.18719 33350 ft 424 kts 171°
2026-05-07 18:53 41.25198 19.20069 32978 ft 420 kts 171°
2026-05-07 18:53 41.22464 19.21401 32611 ft 417 kts 170°
2026-05-07 18:53 41.19756 19.22717 32267 ft 414 kts 170°
2026-05-07 18:53 41.17054 19.24029 31918 ft 411 kts 169°
2026-05-07 18:54 41.14370 19.25330 31579 ft 408 kts 169°
2026-05-07 18:54 41.11716 19.26616 31242 ft 406 kts 168°
2026-05-07 18:54 41.09074 19.27895 30905 ft 403 kts 168°
2026-05-07 18:54 41.06479 19.29150 30574 ft 401 kts 167°
2026-05-07 18:55 41.03841 19.30424 30237 ft 398 kts 167°
2026-05-07 18:55 41.01418 19.31595 29883 ft 396 kts 167°
2026-05-07 18:55 41.00704 19.31940 29770 ft 395 kts 167°
2026-05-07 18:55 40.98125 19.33186 29402 ft 392 kts 167°
2026-05-07 18:56 40.95576 19.34416 29037 ft 388 kts 167°
2026-05-07 18:56 40.93050 19.35635 28712 ft 384 kts 167°
2026-05-07 18:56 40.90547 19.36840 28355 ft 381 kts 167°
2026-05-07 18:56 40.88072 19.38031 28030 ft 378 kts 167°
2026-05-07 18:57 40.85608 19.39215 27678 ft 375 kts 166°
2026-05-07 18:57 40.83167 19.40387 27339 ft 372 kts 166°
2026-05-07 18:57 40.80728 19.41557 27004 ft 370 kts 166°
2026-05-07 18:57 40.78320 19.42712 26664 ft 367 kts 166°
2026-05-07 18:58 40.77500 19.43105 26556 ft 366 kts 166°
2026-05-07 18:58 40.77005 19.43342 26492 ft 366 kts 166°
2026-05-07 18:58 40.74607 19.44491 26152 ft 364 kts 166°
2026-05-07 18:58 40.72270 19.45610 25826 ft 362 kts 166°
2026-05-07 18:59 40.69909 19.46739 25491 ft 360 kts 166°
2026-05-07 18:59 40.67557 19.47863 25178 ft 358 kts 166°
2026-05-07 18:59 40.65717 19.48742 24927 ft 357 kts 166°
2026-05-07 19:00 40.65147 19.49014 24849 ft 356 kts 166°
2026-05-07 19:00 40.62031 19.50502 24421 ft 354 kts 166°
2026-05-07 19:00 40.59716 19.51605 24102 ft 353 kts 165°
2026-05-07 19:00 40.57406 19.52706 23781 ft 352 kts 165°
2026-05-07 19:01 40.55145 19.53782 23655 ft 344 kts 165°
2026-05-07 19:01 40.52908 19.54846 23349 ft 341 kts 165°
2026-05-07 19:01 40.50691 19.55897 23048 ft 338 kts 166°
2026-05-07 19:01 40.48485 19.56942 22714 ft 336 kts 165°
2026-05-07 19:02 40.46286 19.57982 22400 ft 334 kts 165°
2026-05-07 19:02 40.44095 19.59018 22087 ft 333 kts 165°
2026-05-07 19:02 40.41920 19.60046 21764 ft 332 kts 165°
2026-05-07 19:02 40.39752 19.61071 21457 ft 330 kts 165°
2026-05-07 19:03 40.37596 19.62089 21141 ft 329 kts 165°
2026-05-07 19:03 40.35449 19.63102 20826 ft 327 kts 165°
2026-05-07 19:03 40.33310 19.64111 20512 ft 326 kts 165°
2026-05-07 19:03 40.31178 19.65116 20191 ft 325 kts 165°
2026-05-07 19:04 40.29050 19.66118 19887 ft 324 kts 165°
2026-05-07 19:04 40.26962 19.67102 19534 ft 324 kts 165°
2026-05-07 19:04 40.24842 19.68099 19219 ft 323 kts 165°
2026-05-07 19:04 40.22724 19.69094 18905 ft 323 kts 165°
2026-05-07 19:05 40.20614 19.70085 18587 ft 322 kts 165°
2026-05-07 19:05 40.18503 19.71076 18241 ft 321 kts 165°
2026-05-07 19:05 40.16412 19.72058 17914 ft 318 kts 165°
2026-05-07 19:05 40.14323 19.73038 17591 ft 317 kts 165°
2026-05-07 19:06 40.12255 19.74008 17275 ft 314 kts 165°
2026-05-07 19:06 40.08182 19.75916 16664 ft 311 kts 165°
2026-05-07 19:06 40.06153 19.76865 16359 ft 308 kts 165°
2026-05-07 19:07 40.04137 19.77807 16057 ft 306 kts 165°
2026-05-07 19:07 40.02141 19.78740 15763 ft 304 kts 165°
2026-05-07 19:07 40.00827 19.79354 15575 ft 302 kts 165°
2026-05-07 19:07 39.98192 19.80583 15187 ft 299 kts 166°
2026-05-07 19:08 39.96891 19.81190 14982 ft 298 kts 166°
2026-05-07 19:08 39.94943 19.82098 14698 ft 296 kts 165°
2026-05-07 19:08 39.93011 19.82998 14411 ft 294 kts 165°
2026-05-07 19:08 39.91088 19.83893 14126 ft 292 kts 165°
2026-05-07 19:09 39.89187 19.84793 13908 ft 288 kts 164°
2026-05-07 19:09 39.87336 19.85725 13684 ft 284 kts 164°
2026-05-07 19:09 39.85507 19.86658 13413 ft 281 kts 163°
2026-05-07 19:09 39.83691 19.87583 13125 ft 279 kts 163°
2026-05-07 19:10 39.81886 19.88500 12827 ft 277 kts 163°
2026-05-07 19:10 39.80111 19.89399 12546 ft 275 kts 163°
2026-05-07 19:10 39.78324 19.90304 12268 ft 273 kts 163°
2026-05-07 19:10 39.76557 19.91196 11991 ft 271 kts 163°
2026-05-07 19:11 39.74821 19.92071 11718 ft 269 kts 163°
2026-05-07 19:11 39.73056 19.92961 11439 ft 268 kts 163°
2026-05-07 19:11 39.71315 19.93662 11140 ft 262 kts 179°
2026-05-07 19:11 39.69589 19.93177 10924 ft 253 kts 207°
2026-05-07 19:12 39.68204 19.91782 10651 ft 254 kts 228°
2026-05-07 19:12 39.67236 19.89870 10394 ft 254 kts 237°
2026-05-07 19:12 39.66325 19.87915 10150 ft 251 kts 233°
2026-05-07 19:12 39.65327 19.86103 10045 ft 244 kts 229°
2026-05-07 19:13 39.64229 19.84390 9772 ft 249 kts 225°
2026-05-07 19:13 39.63017 19.82737 9501 ft 255 kts 222°
2026-05-07 19:13 39.61723 19.81192 9228 ft 257 kts 218°
2026-05-07 19:13 39.60330 19.79739 8952 ft 255 kts 215°
2026-05-07 19:14 39.58882 19.78426 8677 ft 254 kts 211°
2026-05-07 19:14 39.57387 19.77221 8395 ft 251 kts 208°
2026-05-07 19:14 39.55844 19.76152 8126 ft 249 kts 204°
2026-05-07 19:14 39.54261 19.75265 7900 ft 246 kts 199°
2026-05-07 19:15 39.52668 19.74556 7646 ft 244 kts 196°
2026-05-07 19:15 39.51034 19.73974 7387 ft 243 kts 193°
2026-05-07 19:15 39.49383 19.73512 7132 ft 241 kts 189°
2026-05-07 19:15 39.47726 19.73178 6885 ft 241 kts 186°
2026-05-07 19:16 39.46057 19.72966 6616 ft 240 kts 184°
2026-05-07 19:16 39.44389 19.72867 6346 ft 239 kts 180°
2026-05-07 19:16 39.42722 19.72896 6071 ft 239 kts 178°
2026-05-07 19:16 39.41090 19.73047 5816 ft 238 kts 173°
2026-05-07 19:17 39.39452 19.73421 5386 ft 243 kts 161°
2026-05-07 19:17 39.38141 19.74855 4928 ft 257 kts 121°
2026-05-07 19:17 39.37816 19.77130 4659 ft 266 kts 84°
2026-05-07 19:17 39.38545 19.79308 4578 ft 263 kts 65°
2026-05-07 19:18 39.39249 19.81405 4419 ft 252 kts 79°
2026-05-07 19:18 39.39583 19.83586 4308 ft 242 kts 87°
2026-05-07 19:18 39.39741 19.85718 4197 ft 234 kts 91°
2026-05-07 19:18 39.39920 19.87781 4091 ft 229 kts 82°
2026-05-07 19:19 39.40357 19.89758 3880 ft 229 kts 77°
2026-05-07 19:19 39.40827 19.91711 3693 ft 224 kts 77°
2026-05-07 19:19 39.41278 19.93615 3461 ft 218 kts 78°
2026-05-07 19:19 39.41763 19.95446 3202 ft 214 kts 66°
2026-05-07 19:20 39.42813 19.96745 3005 ft 213 kts 27°
2026-05-07 19:20 39.44246 19.97036 2840 ft 209 kts 356°
2026-05-07 19:20 39.45653 19.96595 2663 ft 205 kts 344°
2026-05-07 19:20 39.46990 19.96079 2444 ft 193 kts 345°
2026-05-07 19:21 39.48233 19.95604 2205 ft 182 kts 345°
2026-05-07 19:21 39.49416 19.95155 2030 ft 172 kts 345°
2026-05-07 19:21 39.50564 19.94721 1782 ft 171 kts 346°
2026-05-07 19:21 39.51697 19.94294 1549 ft 167 kts 346°
2026-05-07 19:22 39.52798 19.93873 1324 ft 164 kts 345°
2026-05-07 19:22 39.53895 19.93457 1121 ft 163 kts 346°
2026-05-07 19:22 39.54964 19.92996 948 ft 162 kts 340°
2026-05-07 19:22 39.56013 19.92456 807 ft 162 kts 342°
2026-05-07 19:23 39.57073 19.92021 540 ft 159 kts 346°
2026-05-07 19:23 39.58146 19.91730 288 ft 154 kts 349°
2026-05-07 19:23 39.59154 19.91468 60 ft 144 kts 349°
2026-05-07 19:23 39.60058 19.91245 22 ft 112 kts 350°
2026-05-07 19:24 39.60620 19.91105 17 ft 52 kts 349°
2026-05-07 19:24 39.60802 19.91056 19 ft 15 kts 349°
2026-05-07 19:24 39.60903 19.91032 18 ft 15 kts 349°
2026-05-07 19:24 39.60994 19.91010 18 ft 7 kts 353°
2026-05-07 19:25 39.61035 19.91046 19 ft 7 kts 57°
2026-05-07 19:25 39.61054 19.91104 18 ft 7 kts 96°
2026-05-07 19:25 39.61010 19.91135 18 ft 7 kts 163°
2026-05-07 19:25 39.60960 19.91149 19 ft 7 kts 168°
2026-05-07 19:26 39.60913 19.91163 18 ft 7 kts 167°
2026-05-07 19:26 39.60892 19.91169 17 ft 1 kts 167°
2026-05-07 19:26 39.60880 19.91172 17 ft 2 kts 167°
2026-05-07 19:26 39.60867 19.91187 17 ft 3 kts 112°
2026-05-07 19:27 39.60867 19.91212 17 ft 3 kts 84°
2026-05-07 19:27 39.60870 19.91239 19 ft 3 kts 79°
2026-05-07 19:27 39.60874 19.91266 17 ft 3 kts 79°
2026-05-07 19:27 39.60877 19.91291 17 ft 2 kts 80°
2026-05-07 19:28 39.60878 19.91298 17 ft 0 kts 80°